MICROMAS-2A (43131 NORAD) Tracking and Keplerian Element Data

This shows tracking and keplerian element data for the satellite.

Feedback or suggestion? Click here.




ElementValue
Catalog43131
NameMICROMAS-2A
Epoch Orbit12355
Epoch Day93.73859563
Epoch Year2020
RAAN166.0831
Inclination97.4541
Eccentricity0.0008025
Argument of Perigee326.2388
Mean Anonmoly33.8338
Mean Motion15.25022297
Decay Rate2.067E-05
L11 43131U 18004W 20093.73859563 .00002067 00000-0 85679-4 0 9999
L22 43131 97.4541 166.0831 0008025 326.2388 33.8338 15.25022297123555

Live tracking and technical data element details for MICROMAS-2A (NORAD 43131). MICROMAS-2A can be tracked NOW for your location showing map with azimuth and elevation plus other details from your city location.

Track the satellite on the map from your city or location and see movement details for azimuth, elevation, latitude, longitude, range, height, and movement on the map or in text.







IsCatalogInMostPopularTable: catalog: 43131, numindb: 544
Update: records affected: 1



GetName: 43131 MICROMAS-2A

Hit Count: updated at: Thu, 09 Apr 2020 16:34:58 GMT